date,time,SUV Intensity [MED/Hr],UV Index,Daily total [MED],Since Last [MED]
11/05/2023,00:01:37,-0.000,0.0,0.0,0.0
11/05/2023,00:02:38,0.000,0.0,0.0,0.0
11/05/2023,00:03:38,-0.001,0.0,0.0,0.0
11/05/2023,00:04:38,-0.001,0.0,0.0,0.0
11/05/2023,00:05:38,0.000,0.0,0.0,0.0
11/05/2023,00:06:37,0.001,0.0,0.0,0.0
11/05/2023,00:07:37,0.000,0.0,0.0,0.0
11/05/2023,00:08:37,0.001,0.0,0.0,0.0
11/05/2023,00:09:38,-0.000,0.0,0.0,0.0
11/05/2023,00:10:38,0.000,0.0,0.0,0.0
11/05/2023,00:11:37,-0.001,0.0,0.0,0.0
11/05/2023,00:12:38,-0.001,0.0,0.0,0.0
11/05/2023,00:13:38,0.001,0.0,0.0,0.0
11/05/2023,00:14:37,0.001,0.0,0.0,0.0
11/05/2023,00:15:37,0.000,0.0,0.0,0.0
11/05/2023,00:16:38,-0.001,0.0,0.0,0.0
11/05/2023,00:17:38,-0.000,0.0,0.0,0.0
11/05/2023,00:18:38,-0.001,0.0,0.0,0.0
11/05/2023,00:19:38,0.000,0.0,0.0,0.0
11/05/2023,00:20:37,0.001,0.0,0.0,0.0
11/05/2023,00:21:37,-0.001,0.0,0.0,0.0
11/05/2023,00:22:37,0.000,0.0,0.0,0.0
11/05/2023,00:23:38,0.000,0.0,0.0,0.0
11/05/2023,00:24:38,0.000,0.0,0.0,0.0
11/05/2023,00:25:38,0.000,0.0,0.0,0.0
11/05/2023,00:26:38,-0.001,0.0,0.0,0.0
11/05/2023,00:27:37,0.000,0.0,0.0,0.0
11/05/2023,00:28:38,-0.001,0.0,0.0,0.0
11/05/2023,00:29:37,0.001,0.0,0.0,0.0
11/05/2023,00:30:38,0.000,0.0,0.0,0.0
11/05/2023,00:31:38,0.001,0.0,0.0,0.0
11/05/2023,00:32:37,0.001,0.0,0.0,0.0
11/05/2023,00:33:38,0.000,0.0,0.0,0.0
11/05/2023,00:34:38,-0.001,0.0,0.0,0.0
11/05/2023,00:35:38,0.000,0.0,0.0,0.0
11/05/2023,00:36:37,0.000,0.0,0.0,0.0
11/05/2023,00:37:38,0.000,0.0,0.0,0.0
11/05/2023,00:38:38,0.000,0.0,0.0,0.0
11/05/2023,00:39:38,-0.001,0.0,0.0,0.0
11/05/2023,00:40:38,-0.000,0.0,0.0,0.0
11/05/2023,00:41:37,0.001,0.0,0.0,0.0
11/05/2023,00:42:38,0.000,0.0,0.0,0.0
11/05/2023,00:43:38,-0.001,0.0,0.0,0.0
11/05/2023,00:44:38,0.001,0.0,0.0,0.0
11/05/2023,00:45:38,0.000,0.0,0.0,0.0
11/05/2023,00:46:37,0.000,0.0,0.0,0.0
11/05/2023,00:47:38,-0.000,0.0,0.0,0.0
11/05/2023,00:48:37,0.000,0.0,0.0,0.0
11/05/2023,00:49:37,-0.000,0.0,0.0,0.0
11/05/2023,00:50:38,-0.001,0.0,0.0,0.0
11/05/2023,00:51:38,-0.001,0.0,0.0,0.0
11/05/2023,00:52:38,0.000,0.0,0.0,0.0
11/05/2023,00:53:38,-0.001,0.0,0.0,0.0
11/05/2023,00:54:37,0.000,0.0,0.0,0.0
11/05/2023,00:55:38,0.000,0.0,0.0,0.0
11/05/2023,00:56:37,0.001,0.0,0.0,0.0
11/05/2023,00:57:38,0.000,0.0,0.0,0.0
11/05/2023,00:58:38,0.000,0.0,0.0,0.0
11/05/2023,00:59:38,0.000,0.0,0.0,0.0
11/05/2023,01:00:38,-0.000,0.0,0.0,0.0
11/05/2023,01:01:38,0.000,0.0,0.0,0.0
11/05/2023,01:02:37,-0.001,0.0,0.0,0.0
11/05/2023,01:03:38,0.001,0.0,0.0,0.0
11/05/2023,01:04:38,0.001,0.0,0.0,0.0
11/05/2023,01:05:38,0.000,0.0,0.0,0.0
11/05/2023,01:06:38,0.000,0.0,0.0,0.0
11/05/2023,01:07:38,0.000,0.0,0.0,0.0
11/05/2023,01:08:38,-0.000,0.0,0.0,0.0
11/05/2023,01:09:38,0.001,0.0,0.0,0.0
11/05/2023,01:10:38,0.001,0.0,0.0,0.0
11/05/2023,01:11:38,0.000,0.0,0.0,0.0
11/05/2023,01:12:38,-0.001,0.0,0.0,0.0
11/05/2023,01:13:38,0.000,0.0,0.0,0.0
11/05/2023,01:14:38,0.000,0.0,0.0,0.0
11/05/2023,01:15:38,0.001,0.0,0.0,0.0
11/05/2023,01:16:38,0.000,0.0,0.0,0.0
11/05/2023,01:17:38,0.001,0.0,0.0,0.0
11/05/2023,01:18:38,-0.001,0.0,0.0,0.0
11/05/2023,01:19:38,0.000,0.0,0.0,0.0
11/05/2023,01:20:37,-0.001,0.0,0.0,0.0
11/05/2023,01:21:37,0.000,0.0,0.0,0.0
11/05/2023,01:22:38,0.000,0.0,0.0,0.0
11/05/2023,01:23:38,0.001,0.0,0.0,0.0
11/05/2023,01:24:38,0.000,0.0,0.0,0.0
11/05/2023,01:25:38,0.000,0.0,0.0,0.0
11/05/2023,01:26:38,0.000,0.0,0.0,0.0
11/05/2023,01:27:38,0.000,0.0,0.0,0.0
11/05/2023,01:28:38,0.000,0.0,0.0,0.0
11/05/2023,01:29:37,0.000,0.0,0.0,0.0
11/05/2023,01:30:38,0.000,0.0,0.0,0.0
11/05/2023,01:31:37,-0.000,0.0,0.0,0.0
11/05/2023,01:32:38,0.000,0.0,0.0,0.0
11/05/2023,01:33:38,0.000,0.0,0.0,0.0
11/05/2023,01:34:38,-0.001,0.0,0.0,0.0
11/05/2023,01:35:38,0.001,0.0,0.0,0.0
11/05/2023,01:36:38,0.000,0.0,0.0,0.0
11/05/2023,01:37:38,0.000,0.0,0.0,0.0
11/05/2023,01:38:38,0.000,0.0,0.0,0.0
11/05/2023,01:39:38,-0.001,0.0,0.0,0.0
11/05/2023,01:40:38,0.000,0.0,0.0,0.0
11/05/2023,01:41:38,-0.000,0.0,0.0,0.0
11/05/2023,01:42:38,0.001,0.0,0.0,0.0
11/05/2023,01:43:38,0.000,0.0,0.0,0.0
11/05/2023,01:44:38,0.001,0.0,0.0,0.0
11/05/2023,01:45:38,-0.001,0.0,0.0,0.0
11/05/2023,01:46:38,0.000,0.0,0.0,0.0
11/05/2023,01:47:38,0.001,0.0,0.0,0.0
11/05/2023,01:48:38,-0.001,0.0,0.0,0.0
11/05/2023,01:49:37,0.000,0.0,0.0,0.0
11/05/2023,01:50:37,0.001,0.0,0.0,0.0
11/05/2023,01:51:38,-0.001,0.0,0.0,0.0
11/05/2023,01:52:38,0.000,0.0,0.0,0.0
11/05/2023,01:53:38,0.000,0.0,0.0,0.0
11/05/2023,01:54:38,0.000,0.0,0.0,0.0
11/05/2023,01:55:38,0.000,0.0,0.0,0.0
11/05/2023,01:56:37,0.000,0.0,0.0,0.0
11/05/2023,01:57:37,0.001,0.0,0.0,0.0
11/05/2023,01:58:37,0.000,0.0,0.0,0.0
11/05/2023,01:59:37,-0.001,0.0,0.0,0.0
11/05/2023,02:00:37,0.001,0.0,0.0,0.0
11/05/2023,02:01:37,0.000,0.0,0.0,0.0
11/05/2023,02:02:38,0.000,0.0,0.0,0.0
11/05/2023,02:03:38,-0.001,0.0,0.0,0.0
11/05/2023,02:04:38,0.001,0.0,0.0,0.0
11/05/2023,02:05:38,0.000,0.0,0.0,0.0
11/05/2023,02:06:38,-0.000,0.0,0.0,0.0
11/05/2023,02:07:38,0.001,0.0,0.0,0.0
11/05/2023,02:08:38,-0.001,0.0,0.0,0.0
11/05/2023,02:09:37,0.000,0.0,0.0,0.0
11/05/2023,02:10:38,0.001,0.0,0.0,0.0
11/05/2023,02:11:38,-0.001,0.0,0.0,0.0
11/05/2023,02:12:38,0.000,0.0,0.0,0.0
11/05/2023,02:13:38,0.000,0.0,0.0,0.0
11/05/2023,02:14:38,0.001,0.0,0.0,0.0
11/05/2023,02:15:38,-0.000,0.0,0.0,0.0
11/05/2023,02:16:38,0.000,0.0,0.0,0.0
11/05/2023,02:17:38,0.001,0.0,0.0,0.0
11/05/2023,02:18:38,0.000,0.0,0.0,0.0
11/05/2023,02:19:38,0.000,0.0,0.0,0.0
11/05/2023,02:20:38,0.001,0.0,0.0,0.0
11/05/2023,02:21:38,0.000,0.0,0.0,0.0
11/05/2023,02:22:38,-0.001,0.0,0.0,0.0
11/05/2023,02:23:38,0.000,0.0,0.0,0.0
11/05/2023,02:24:37,0.000,0.0,0.0,0.0
11/05/2023,02:25:38,0.000,0.0,0.0,0.0
11/05/2023,02:26:38,0.001,0.0,0.0,0.0
11/05/2023,02:27:38,0.001,0.0,0.0,0.0
11/05/2023,02:28:38,0.000,0.0,0.0,0.0
11/05/2023,02:29:38,0.001,0.0,0.0,0.0
11/05/2023,02:30:38,0.000,0.0,0.0,0.0
11/05/2023,02:31:37,-0.001,0.0,0.0,0.0
11/05/2023,02:32:37,0.000,0.0,0.0,0.0
11/05/2023,02:33:38,0.000,0.0,0.0,0.0
11/05/2023,02:34:38,0.000,0.0,0.0,0.0
11/05/2023,02:35:38,-0.001,0.0,0.0,0.0
11/05/2023,02:36:38,0.000,0.0,0.0,0.0
11/05/2023,02:37:38,-0.001,0.0,0.0,0.0
11/05/2023,02:38:38,0.001,0.0,0.0,0.0
11/05/2023,02:39:38,0.000,0.0,0.0,0.0
11/05/2023,02:40:37,-0.001,0.0,0.0,0.0
11/05/2023,02:41:38,0.001,0.0,0.0,0.0
11/05/2023,02:42:38,0.000,0.0,0.0,0.0
11/05/2023,02:43:38,0.000,0.0,0.0,0.0
11/05/2023,02:44:38,0.000,0.0,0.0,0.0
11/05/2023,02:45:37,0.000,0.0,0.0,0.0
11/05/2023,02:46:38,-0.000,0.0,0.0,0.0
11/05/2023,02:47:38,-0.001,0.0,0.0,0.0
11/05/2023,02:48:38,0.000,0.0,0.0,0.0
11/05/2023,02:49:37,-0.000,0.0,0.0,0.0
11/05/2023,02:50:38,0.000,0.0,0.0,0.0
11/05/2023,02:51:38,-0.001,0.0,0.0,0.0
11/05/2023,02:52:38,0.000,0.0,0.0,0.0
11/05/2023,02:53:38,0.000,0.0,0.0,0.0
11/05/2023,02:54:37,-0.000,0.0,0.0,0.0
11/05/2023,02:55:38,0.001,0.0,0.0,0.0
11/05/2023,02:56:38,0.000,0.0,0.0,0.0
11/05/2023,02:57:38,0.001,0.0,0.0,0.0
11/05/2023,02:58:38,-0.001,0.0,0.0,0.0
11/05/2023,02:59:38,0.000,0.0,0.0,0.0
11/05/2023,03:00:37,0.001,0.0,0.0,0.0
11/05/2023,03:01:38,0.001,0.0,0.0,0.0
11/05/2023,03:02:38,-0.000,0.0,0.0,0.0
11/05/2023,03:03:38,0.000,0.0,0.0,0.0
11/05/2023,03:04:37,0.000,0.0,0.0,0.0
11/05/2023,03:05:37,0.000,0.0,0.0,0.0
11/05/2023,03:06:38,-0.001,0.0,0.0,0.0
11/05/2023,03:07:38,-0.000,0.0,0.0,0.0
11/05/2023,03:08:37,0.000,0.0,0.0,0.0
11/05/2023,03:09:38,0.000,0.0,0.0,0.0
11/05/2023,03:10:38,0.000,0.0,0.0,0.0
11/05/2023,03:11:38,0.000,0.0,0.0,0.0
11/05/2023,03:12:38,0.000,0.0,0.0,0.0
11/05/2023,03:13:38,0.000,0.0,0.0,0.0
11/05/2023,03:14:38,0.000,0.0,0.0,0.0
11/05/2023,03:15:38,0.000,0.0,0.0,0.0
11/05/2023,03:16:38,0.000,0.0,0.0,0.0
11/05/2023,03:17:38,-0.000,0.0,0.0,0.0
11/05/2023,03:18:38,0.000,0.0,0.0,0.0
11/05/2023,03:19:37,0.000,0.0,0.0,0.0
11/05/2023,03:20:38,0.001,0.0,0.0,0.0
11/05/2023,03:21:38,-0.000,0.0,0.0,0.0
11/05/2023,03:22:38,0.000,0.0,0.0,0.0
11/05/2023,03:23:38,0.000,0.0,0.0,0.0
11/05/2023,03:24:38,0.000,0.0,0.0,0.0
11/05/2023,03:25:38,0.000,0.0,0.0,0.0
11/05/2023,03:26:38,0.001,0.0,0.0,0.0
11/05/2023,03:27:38,0.000,0.0,0.0,0.0
11/05/2023,03:28:38,0.001,0.0,0.0,0.0
11/05/2023,03:29:38,0.000,0.0,0.0,0.0
11/05/2023,03:30:38,0.000,0.0,0.0,0.0
11/05/2023,03:31:38,0.000,0.0,0.0,0.0
11/05/2023,03:32:38,0.000,0.0,0.0,0.0
11/05/2023,03:33:38,-0.001,0.0,0.0,0.0
11/05/2023,03:34:38,0.000,0.0,0.0,0.0
11/05/2023,03:35:38,0.000,0.0,0.0,0.0
11/05/2023,03:36:38,0.000,0.0,0.0,0.0
11/05/2023,03:37:38,0.001,0.0,0.0,0.0
11/05/2023,03:38:38,0.001,0.0,0.0,0.0
11/05/2023,03:39:38,0.000,0.0,0.0,0.0
11/05/2023,03:40:38,0.000,0.0,0.0,0.0
11/05/2023,03:41:38,0.000,0.0,0.0,0.0
11/05/2023,03:42:38,0.000,0.0,0.0,0.0
11/05/2023,03:43:38,0.000,0.0,0.0,0.0
11/05/2023,03:44:38,0.000,0.0,0.0,0.0
11/05/2023,03:45:38,-0.001,0.0,0.0,0.0
11/05/2023,03:46:38,0.001,0.0,0.0,0.0
11/05/2023,03:47:38,0.001,0.0,0.0,0.0
11/05/2023,03:48:38,0.000,0.0,0.0,0.0
11/05/2023,03:49:38,0.001,0.0,0.0,0.0
11/05/2023,03:50:38,-0.001,0.0,0.0,0.0
11/05/2023,03:51:38,0.001,0.0,0.0,0.0
11/05/2023,03:52:39,0.000,0.0,0.0,0.0
11/05/2023,03:53:38,0.000,0.0,0.0,0.0
11/05/2023,03:54:38,0.000,0.0,0.0,0.0
11/05/2023,03:55:38,0.001,0.0,0.0,0.0
11/05/2023,03:56:38,0.000,0.0,0.0,0.0
11/05/2023,03:57:38,0.000,0.0,0.0,0.0
11/05/2023,03:58:38,0.000,0.0,0.0,0.0
11/05/2023,03:59:38,0.001,0.0,0.0,0.0
11/05/2023,04:00:38,0.000,0.0,0.0,0.0
11/05/2023,04:01:38,0.001,0.0,0.0,0.0
11/05/2023,04:02:38,-0.000,0.0,0.0,0.0
11/05/2023,04:03:38,0.002,0.0,0.0,0.0
11/05/2023,04:04:38,0.000,0.0,0.0,0.0
11/05/2023,04:05:38,0.001,0.0,0.0,0.0
11/05/2023,04:06:38,-0.000,0.0,0.0,0.0
11/05/2023,04:07:38,0.001,0.0,0.0,0.0
11/05/2023,04:08:38,0.001,0.0,0.0,0.0
11/05/2023,04:09:38,0.001,0.0,0.0,0.0
11/05/2023,04:10:38,0.002,0.0,0.0,0.0
11/05/2023,04:11:38,0.001,0.0,0.0,0.0
11/05/2023,04:12:38,0.001,0.0,0.0,0.0
11/05/2023,04:13:40,0.001,0.0,0.0,0.0
11/05/2023,04:14:38,0.001,0.0,0.0,0.0
11/05/2023,04:15:38,0.001,0.0,0.0,0.0
11/05/2023,04:16:38,0.001,0.0,0.0,0.0
11/05/2023,04:17:38,0.001,0.0,0.0,0.0
11/05/2023,04:18:38,0.002,0.0,0.0,0.0
11/05/2023,04:19:38,0.002,0.0,0.0,0.0
11/05/2023,04:20:38,0.002,0.0,0.0,0.0
11/05/2023,04:21:38,0.002,0.0,0.0,0.0
11/05/2023,04:22:38,0.002,0.0,0.0,0.0
11/05/2023,04:23:38,0.002,0.0,0.0,0.0
11/05/2023,04:24:38,0.003,0.0,0.0,0.0
11/05/2023,04:25:38,0.004,0.0,0.0,0.0
11/05/2023,04:26:38,0.003,0.0,0.0,0.0
11/05/2023,04:27:40,0.003,0.0,0.0,0.0
11/05/2023,04:28:38,0.002,0.0,0.0,0.0
11/05/2023,04:29:37,0.003,0.0,0.0,0.0
11/05/2023,04:30:37,0.004,0.0,0.0,0.0
11/05/2023,04:31:39,0.002,0.0,0.0,0.0
11/05/2023,04:32:38,0.004,0.0,0.0,0.0
11/05/2023,04:33:38,0.004,0.0,0.0,0.0
11/05/2023,04:34:38,0.005,0.0,0.0,0.0
11/05/2023,04:35:38,0.004,0.0,0.0,0.0
11/05/2023,04:36:38,0.005,0.0,0.0,0.0
11/05/2023,04:37:38,0.006,0.0,0.0,0.0
11/05/2023,04:38:38,0.005,0.0,0.0,0.0
11/05/2023,04:39:38,0.005,0.0,0.0,0.0
11/05/2023,04:40:38,0.006,0.0,0.0,0.0
11/05/2023,04:41:38,0.007,0.0,0.0,0.0
11/05/2023,04:42:38,0.006,0.0,0.0,0.0
11/05/2023,04:43:38,0.007,0.0,0.0,0.0
11/05/2023,04:44:38,0.006,0.0,0.0,0.0
11/05/2023,04:45:38,0.006,0.0,0.0,0.0
11/05/2023,04:46:38,0.007,0.0,0.0,0.0
11/05/2023,04:47:38,0.008,0.0,0.001,0.001
11/05/2023,04:48:38,0.008,0.0,0.001,0.0
11/05/2023,04:49:38,0.008,0.0,0.001,0.0
11/05/2023,04:50:38,0.008,0.0,0.001,0.0
11/05/2023,04:51:38,0.009,0.0,0.001,0.0
11/05/2023,04:52:38,0.010,0.0,0.001,0.0
11/05/2023,04:53:38,0.009,0.0,0.001,0.0
11/05/2023,04:54:38,0.010,0.0,0.002,0.001
11/05/2023,04:55:38,0.010,0.0,0.002,0.0
11/05/2023,04:56:38,0.010,0.0,0.002,0.0
11/05/2023,04:57:38,0.011,0.0,0.002,0.0
11/05/2023,04:58:38,0.010,0.0,0.002,0.0
11/05/2023,04:59:38,0.011,0.0,0.003,0.001
11/05/2023,05:00:38,0.012,0.0,0.003,0.0
11/05/2023,05:01:38,0.012,0.0,0.003,0.0
11/05/2023,05:02:38,0.014,0.0,0.003,0.0
11/05/2023,05:03:38,0.013,0.0,0.003,0.0
11/05/2023,05:04:38,0.014,0.0,0.004,0.001
11/05/2023,05:05:38,0.013,0.0,0.004,0.0
11/05/2023,05:06:38,0.015,0.0,0.004,0.0
11/05/2023,05:07:39,0.015,0.0,0.004,0.0
11/05/2023,05:08:38,0.016,0.0,0.005,0.001
11/05/2023,05:09:38,0.015,0.0,0.005,0.0
11/05/2023,05:10:38,0.016,0.0,0.005,0.0
11/05/2023,05:11:38,0.017,0.0,0.005,0.0
11/05/2023,05:12:38,0.018,0.0,0.006,0.001
11/05/2023,05:13:38,0.018,0.0,0.006,0.0
11/05/2023,05:14:38,0.019,0.0,0.006,0.0
11/05/2023,05:15:38,0.019,0.0,0.007,0.001
11/05/2023,05:16:38,0.020,0.0,0.007,0.0
11/05/2023,05:17:39,0.019,0.0,0.007,0.0
11/05/2023,05:18:39,0.020,0.0,0.008,0.001
11/05/2023,05:19:38,0.021,0.0,0.008,0.0
11/05/2023,05:20:38,0.022,0.0,0.008,0.0
11/05/2023,05:21:39,0.023,0.0,0.009,0.001
11/05/2023,05:22:38,0.024,0.0,0.009,0.0
11/05/2023,05:23:38,0.024,0.0,0.009,0.0
11/05/2023,05:24:38,0.026,0.0,0.01,0.001
11/05/2023,05:25:38,0.027,0.0,0.01,0.0
11/05/2023,05:26:38,0.027,0.0,0.011,0.001
11/05/2023,05:27:38,0.028,0.0,0.011,0.0
11/05/2023,05:28:38,0.029,0.0,0.012,0.001
11/05/2023,05:29:38,0.029,0.0,0.012,0.0
11/05/2023,05:30:38,0.030,0.0,0.013,0.001
11/05/2023,05:31:38,0.033,0.0,0.013,0.0
11/05/2023,05:32:38,0.032,0.0,0.014,0.001
11/05/2023,05:33:38,0.032,0.0,0.014,0.0
11/05/2023,05:34:38,0.034,0.0,0.015,0.001
11/05/2023,05:35:38,0.034,0.0,0.015,0.0
11/05/2023,05:36:38,0.035,0.0,0.016,0.001
11/05/2023,05:37:39,0.037,0.0,0.016,0.0
11/05/2023,05:38:39,0.037,0.0,0.017,0.001
11/05/2023,05:39:39,0.039,0.0,0.018,0.001
11/05/2023,05:40:38,0.040,0.0,0.018,0.0
11/05/2023,05:41:38,0.042,0.0,0.019,0.001
11/05/2023,05:42:38,0.042,0.0,0.02,0.001
11/05/2023,05:43:38,0.040,0.0,0.02,0.0
11/05/2023,05:44:38,0.041,0.0,0.021,0.001
11/05/2023,05:45:38,0.044,0.0,0.022,0.001
11/05/2023,05:46:38,0.044,0.0,0.023,0.001
11/05/2023,05:47:38,0.045,0.0,0.023,0.0
11/05/2023,05:48:38,0.046,0.0,0.024,0.001
11/05/2023,05:49:39,0.046,0.0,0.025,0.001
11/05/2023,05:50:39,0.048,0.0,0.026,0.001
11/05/2023,05:51:38,0.051,0.0,0.026,0.0
11/05/2023,05:52:38,0.054,0.0,0.027,0.001
11/05/2023,05:53:38,0.055,0.0,0.028,0.001
11/05/2023,05:54:38,0.056,0.0,0.029,0.001
11/05/2023,05:55:38,0.056,0.0,0.03,0.001
11/05/2023,05:56:39,0.057,0.0,0.031,0.001
11/05/2023,05:57:39,0.059,0.0,0.032,0.001
11/05/2023,05:58:38,0.062,0.0,0.033,0.001
11/05/2023,05:59:38,0.064,0.0,0.034,0.001
11/05/2023,06:00:38,0.067,0.0,0.035,0.001
11/05/2023,06:01:38,0.072,0.0,0.036,0.001
11/05/2023,06:02:38,0.074,0.0,0.038,0.002
11/05/2023,06:03:38,0.077,0.0,0.039,0.001
11/05/2023,06:04:38,0.079,0.0,0.04,0.001
11/05/2023,06:05:39,0.081,0.0,0.041,0.001
11/05/2023,06:06:38,0.085,0.0,0.043,0.002
11/05/2023,06:07:38,0.087,0.0,0.044,0.001
11/05/2023,06:08:38,0.089,0.0,0.046,0.002
11/05/2023,06:09:38,0.090,0.0,0.047,0.001
11/05/2023,06:10:38,0.088,0.0,0.049,0.002
11/05/2023,06:11:40,0.089,0.0,0.05,0.001
11/05/2023,06:12:38,0.091,0.0,0.052,0.002
11/05/2023,06:13:38,0.095,0.0,0.053,0.001
11/05/2023,06:14:38,0.099,0.0,0.055,0.002
11/05/2023,06:15:38,0.100,0.0,0.056,0.001
11/05/2023,06:16:38,0.103,0.0,0.058,0.002
11/05/2023,06:17:38,0.109,0.0,0.06,0.002
11/05/2023,06:18:39,0.113,0.0,0.062,0.002
11/05/2023,06:19:38,0.118,0.0,0.064,0.002
11/05/2023,06:20:38,0.117,0.0,0.066,0.002
11/05/2023,06:21:39,0.123,0.0,0.068,0.002
11/05/2023,06:22:39,0.126,0.0,0.07,0.002
11/05/2023,06:23:38,0.129,0.0,0.072,0.002
11/05/2023,06:24:38,0.132,0.0,0.074,0.002
11/05/2023,06:25:38,0.134,0.0,0.076,0.002
11/05/2023,06:26:38,0.137,0.0,0.078,0.002
11/05/2023,06:27:38,0.139,0.0,0.081,0.003
11/05/2023,06:28:38,0.141,0.0,0.083,0.002
11/05/2023,06:29:38,0.146,0.0,0.085,0.002
11/05/2023,06:30:38,0.149,0.0,0.088,0.003
11/05/2023,06:31:39,0.152,0.0,0.09,0.002
11/05/2023,06:32:38,0.154,0.0,0.093,0.003
11/05/2023,06:33:38,0.158,0.0,0.096,0.003
11/05/2023,06:34:38,0.162,0.0,0.098,0.002
11/05/2023,06:35:38,0.165,0.0,0.101,0.003
11/05/2023,06:36:38,0.167,0.0,0.104,0.003
11/05/2023,06:37:38,0.170,0.0,0.107,0.003
11/05/2023,06:38:39,0.172,0.0,0.109,0.002
11/05/2023,06:39:39,0.175,0.0,0.112,0.003
11/05/2023,06:40:38,0.177,0.0,0.115,0.003
11/05/2023,06:41:39,0.185,0.0,0.118,0.003
11/05/2023,06:42:37,0.187,0.0,0.121,0.003
11/05/2023,06:43:38,0.192,0.0,0.125,0.004
11/05/2023,06:44:38,0.195,0.0,0.128,0.003
11/05/2023,06:45:38,0.198,0.0,0.131,0.003
11/05/2023,06:46:38,0.202,0.0,0.134,0.003
11/05/2023,06:47:38,0.206,0.0,0.138,0.004
11/05/2023,06:48:38,0.209,0.0,0.141,0.003
11/05/2023,06:49:39,0.213,0.0,0.145,0.004
11/05/2023,06:50:39,0.217,0.0,0.148,0.003
11/05/2023,06:51:38,0.221,1.0,0.152,0.004
11/05/2023,06:52:38,0.224,1.0,0.156,0.004
11/05/2023,06:53:38,0.228,1.0,0.159,0.003
11/05/2023,06:54:38,0.231,1.0,0.163,0.004
11/05/2023,06:55:38,0.235,1.0,0.167,0.004
11/05/2023,06:56:38,0.239,1.0,0.171,0.004
11/05/2023,06:57:38,0.244,1.0,0.175,0.004
11/05/2023,06:58:39,0.247,1.0,0.179,0.004
11/05/2023,06:59:38,0.251,1.0,0.183,0.004
11/05/2023,07:00:39,0.255,1.0,0.188,0.005
11/05/2023,07:01:38,0.260,1.0,0.192,0.004
11/05/2023,07:02:38,0.263,1.0,0.196,0.004
11/05/2023,07:03:38,0.267,1.0,0.201,0.005
11/05/2023,07:04:38,0.270,1.0,0.205,0.004
11/05/2023,07:05:39,0.275,1.0,0.21,0.005
11/05/2023,07:06:39,0.280,1.0,0.214,0.004
11/05/2023,07:07:38,0.285,1.0,0.219,0.005
11/05/2023,07:08:39,0.288,1.0,0.224,0.005
11/05/2023,07:09:39,0.294,1.0,0.229,0.005
11/05/2023,07:10:39,0.298,1.0,0.234,0.005
11/05/2023,07:11:38,0.302,1.0,0.239,0.005
11/05/2023,07:12:38,0.306,1.0,0.244,0.005
11/05/2023,07:13:39,0.311,1.0,0.249,0.005
11/05/2023,07:14:39,0.316,1.0,0.254,0.005
11/05/2023,07:15:38,0.321,1.0,0.259,0.005
11/05/2023,07:16:39,0.327,1.0,0.265,0.006
11/05/2023,07:17:38,0.331,1.0,0.27,0.005
11/05/2023,07:18:39,0.334,1.0,0.276,0.006
11/05/2023,07:19:39,0.341,1.0,0.281,0.005
11/05/2023,07:20:39,0.343,1.0,0.287,0.006
11/05/2023,07:21:38,0.350,1.0,0.293,0.006
11/05/2023,07:22:38,0.357,1.0,0.299,0.006
11/05/2023,07:23:39,0.362,1.0,0.305,0.006
11/05/2023,07:24:39,0.368,1.0,0.311,0.006
11/05/2023,07:25:39,0.372,1.0,0.317,0.006
11/05/2023,07:26:38,0.376,1.0,0.323,0.006
11/05/2023,07:27:39,0.383,1.0,0.33,0.007
11/05/2023,07:28:38,0.390,1.0,0.336,0.006
11/05/2023,07:29:38,0.394,1.0,0.342,0.006
11/05/2023,07:30:39,0.400,1.0,0.349,0.007
11/05/2023,07:31:38,0.405,1.0,0.356,0.007
11/05/2023,07:32:38,0.410,1.0,0.363,0.007
11/05/2023,07:33:38,0.418,1.0,0.37,0.007
11/05/2023,07:34:39,0.423,1.0,0.377,0.007
11/05/2023,07:35:39,0.429,1.0,0.384,0.007
11/05/2023,07:36:39,0.350,1.0,0.39,0.006
11/05/2023,07:37:38,0.446,1.0,0.396,0.006
11/05/2023,07:38:39,0.445,1.0,0.404,0.008
11/05/2023,07:39:39,0.452,1.0,0.411,0.007
11/05/2023,07:40:38,0.456,1.0,0.419,0.008
11/05/2023,07:41:38,0.463,1.0,0.427,0.008
11/05/2023,07:42:38,0.468,1.0,0.434,0.007
11/05/2023,07:43:38,0.474,1.0,0.442,0.008
11/05/2023,07:44:39,0.480,1.0,0.45,0.008
11/05/2023,07:45:39,0.487,1.0,0.458,0.008
11/05/2023,07:46:38,0.492,1.0,0.466,0.008
11/05/2023,07:47:38,0.499,1.0,0.475,0.009
11/05/2023,07:48:39,0.504,1.0,0.483,0.008
11/05/2023,07:49:39,0.513,1.0,0.491,0.008
11/05/2023,07:50:38,0.519,1.0,0.5,0.009
11/05/2023,07:51:38,0.527,1.0,0.509,0.009
11/05/2023,07:52:39,0.533,1.0,0.518,0.009
11/05/2023,07:53:38,0.540,1.0,0.527,0.009
11/05/2023,07:54:38,0.546,1.0,0.536,0.009
11/05/2023,07:55:38,0.548,1.0,0.545,0.009
11/05/2023,07:56:39,0.556,1.0,0.554,0.009
11/05/2023,07:57:39,0.567,1.0,0.563,0.009
11/05/2023,07:58:38,0.575,1.0,0.573,0.01
11/05/2023,07:59:38,0.581,1.0,0.582,0.009
11/05/2023,08:00:38,0.588,1.0,0.592,0.01
11/05/2023,08:01:39,0.597,1.0,0.602,0.01
11/05/2023,08:02:38,0.603,1.0,0.612,0.01
11/05/2023,08:03:39,0.602,1.0,0.622,0.01
11/05/2023,08:04:39,0.618,1.0,0.632,0.01
11/05/2023,08:05:38,0.625,1.0,0.642,0.01
11/05/2023,08:06:38,0.628,1.0,0.653,0.011
11/05/2023,08:07:38,0.638,1.0,0.663,0.01
11/05/2023,08:08:38,0.646,1.0,0.674,0.011
11/05/2023,08:09:38,0.656,2.0,0.685,0.011
11/05/2023,08:10:38,0.656,2.0,0.696,0.011
11/05/2023,08:11:39,0.670,2.0,0.707,0.011
11/05/2023,08:12:39,0.644,1.0,0.718,0.011
11/05/2023,08:13:39,0.688,2.0,0.729,0.011
11/05/2023,08:14:39,0.571,1.0,0.74,0.011
11/05/2023,08:15:39,0.576,1.0,0.75,0.01
11/05/2023,08:16:39,0.519,1.0,0.76,0.01
11/05/2023,08:17:38,0.577,1.0,0.77,0.01
11/05/2023,08:18:38,0.660,2.0,0.781,0.011
11/05/2023,08:19:39,0.709,2.0,0.792,0.011
11/05/2023,08:20:39,0.715,2.0,0.804,0.012
11/05/2023,08:21:39,0.651,1.0,0.816,0.012
11/05/2023,08:22:38,0.531,1.0,0.826,0.01
11/05/2023,08:23:38,0.489,1.0,0.834,0.008
11/05/2023,08:24:39,0.716,2.0,0.844,0.01
11/05/2023,08:25:39,0.737,2.0,0.856,0.012
11/05/2023,08:26:39,0.750,2.0,0.868,0.012
11/05/2023,08:27:39,0.760,2.0,0.881,0.013
11/05/2023,08:28:39,0.773,2.0,0.893,0.012
11/05/2023,08:29:38,0.791,2.0,0.906,0.013
11/05/2023,08:30:39,0.802,2.0,0.92,0.014
11/05/2023,08:31:39,0.809,2.0,0.933,0.013
11/05/2023,08:32:39,0.797,2.0,0.947,0.014
11/05/2023,08:33:39,0.782,2.0,0.96,0.013
11/05/2023,08:34:39,0.654,2.0,0.973,0.013
11/05/2023,08:35:38,0.466,1.0,0.981,0.008
11/05/2023,08:36:39,0.446,1.0,0.989,0.008
11/05/2023,08:37:39,0.442,1.0,0.996,0.007
11/05/2023,08:38:39,0.442,1.0,1.003,0.007
11/05/2023,08:39:38,0.454,1.0,1.011,0.008
11/05/2023,08:40:38,0.469,1.0,1.018,0.007
11/05/2023,08:41:38,0.479,1.0,1.026,0.008
11/05/2023,08:42:39,0.488,1.0,1.034,0.008
11/05/2023,08:43:38,0.501,1.0,1.043,0.009
11/05/2023,08:44:39,0.521,1.0,1.051,0.008
11/05/2023,08:45:39,0.540,1.0,1.06,0.009
11/05/2023,08:46:39,0.556,1.0,1.069,0.009
11/05/2023,08:47:38,0.569,1.0,1.078,0.009
11/05/2023,08:48:39,0.578,1.0,1.088,0.01
11/05/2023,08:49:38,0.590,1.0,1.098,0.01
11/05/2023,08:50:39,0.604,1.0,1.108,0.01
11/05/2023,08:51:38,0.603,1.0,1.118,0.01
11/05/2023,08:52:39,0.601,1.0,1.128,0.01
11/05/2023,08:53:39,0.600,1.0,1.138,0.01
11/05/2023,08:54:38,0.588,1.0,1.148,0.01
11/05/2023,08:55:40,0.572,1.0,1.158,0.01
11/05/2023,08:56:39,0.559,1.0,1.167,0.009
11/05/2023,08:57:39,0.542,1.0,1.176,0.009
11/05/2023,08:58:39,0.534,1.0,1.185,0.009
11/05/2023,08:59:38,0.544,1.0,1.194,0.009
11/05/2023,09:00:39,0.879,2.0,1.205,0.011
11/05/2023,09:01:39,0.567,1.0,1.216,0.011
11/05/2023,09:02:38,0.694,2.0,1.226,0.01
11/05/2023,09:03:38,0.580,1.0,1.237,0.011
11/05/2023,09:04:39,0.586,1.0,1.247,0.01
11/05/2023,09:05:38,0.587,1.0,1.256,0.009
11/05/2023,09:06:38,0.601,1.0,1.266,0.01
11/05/2023,09:07:39,0.612,1.0,1.276,0.01
11/05/2023,09:08:39,0.624,1.0,1.287,0.011
11/05/2023,09:09:39,0.636,1.0,1.297,0.01
11/05/2023,09:10:38,0.644,1.0,1.308,0.011
11/05/2023,09:11:39,0.653,2.0,1.319,0.011
11/05/2023,09:12:39,0.659,2.0,1.33,0.011
11/05/2023,09:13:39,0.692,2.0,1.341,0.011
11/05/2023,09:14:39,0.856,2.0,1.354,0.013
11/05/2023,09:15:39,1.127,3.0,1.372,0.018
11/05/2023,09:16:38,1.033,2.0,1.39,0.018
11/05/2023,09:17:39,0.720,2.0,1.403,0.013
11/05/2023,09:18:38,0.707,2.0,1.415,0.012
11/05/2023,09:19:39,0.712,2.0,1.427,0.012
11/05/2023,09:20:39,0.720,2.0,1.439,0.012
11/05/2023,09:21:39,0.733,2.0,1.451,0.012
11/05/2023,09:22:38,0.813,2.0,1.464,0.013
11/05/2023,09:23:38,0.951,2.0,1.478,0.014
11/05/2023,09:24:39,0.987,2.0,1.495,0.017
11/05/2023,09:25:39,0.957,2.0,1.512,0.017
11/05/2023,09:26:39,0.856,2.0,1.527,0.015
11/05/2023,09:27:38,1.114,3.0,1.542,0.015
11/05/2023,09:28:39,1.179,3.0,1.563,0.021
11/05/2023,09:29:39,0.979,2.0,1.58,0.017
11/05/2023,09:30:39,0.959,2.0,1.597,0.017
11/05/2023,09:31:38,0.937,2.0,1.613,0.016
11/05/2023,09:32:38,0.814,2.0,1.627,0.014
11/05/2023,09:33:38,0.794,2.0,1.641,0.014
11/05/2023,09:34:38,0.799,2.0,1.654,0.013
11/05/2023,09:35:39,0.836,2.0,1.668,0.014
11/05/2023,09:36:39,1.306,3.0,1.685,0.017
11/05/2023,09:37:39,1.297,3.0,1.707,0.022
11/05/2023,09:38:38,0.865,2.0,1.727,0.02
11/05/2023,09:39:39,0.828,2.0,1.741,0.014
11/05/2023,09:40:39,0.828,2.0,1.755,0.014
11/05/2023,09:41:38,0.831,2.0,1.769,0.014
11/05/2023,09:42:39,0.838,2.0,1.783,0.014
11/05/2023,09:43:39,0.850,2.0,1.797,0.014
11/05/2023,09:44:39,0.876,2.0,1.811,0.014
11/05/2023,09:45:38,0.912,2.0,1.826,0.015
11/05/2023,09:46:39,1.367,3.0,1.845,0.019
11/05/2023,09:47:39,1.485,3.0,1.869,0.024
11/05/2023,09:48:39,1.500,3.0,1.894,0.025
11/05/2023,09:49:38,1.514,3.0,1.919,0.025
11/05/2023,09:50:39,1.528,4.0,1.945,0.026
11/05/2023,09:51:38,1.545,4.0,1.97,0.025
11/05/2023,09:52:39,1.553,4.0,1.996,0.026
11/05/2023,09:53:38,1.305,3.0,2.019,0.023
11/05/2023,09:54:39,1.556,4.0,2.045,0.026
11/05/2023,09:55:39,1.539,4.0,2.071,0.026
11/05/2023,09:56:39,1.526,4.0,2.096,0.025
11/05/2023,09:57:38,1.523,4.0,2.122,0.026
11/05/2023,09:58:39,1.496,3.0,2.147,0.025